Showing default

COSMOS 2385, 27056

Orbit data source: Space-Track

COSMOS 2385, 27056 is a payload satellite owned by KVR (CIS) in LEO that was launched on Fri, 28 Dec 2001 UTC via a TSIKLON-3 launch vehicle from the Plesetsk Missile And Space Complex (PKMTR). Payloads include a variety of satellites, spacecraft, and rockets equipped with specific instruments for various scientific and technological missions. These include communications satellites like Starlink; space stations such as the ISS; scientific satellites like the Hubble; Earth observation satellites from companies like Planet Labs, Umbra, and HawkEye 360; GPS; miniature CubeSats for education and research; and military/defense satellites.

Loading next visibility...
COSMOS 2385 details
Identifier
27056, 2001-058B
Orbit
LEO
Last TLE update13 hours ago
Origin
Flag of CISKVR (CIS)
ManufacturerNPO PM
MissionOperational Defense Communications
Bus & MotorSTRELA-3, Unknown motor
Mass225 kg wet, 225 kg dry
Launch date (UTC)
2001-12-28 (23 years ago)
Launch vehicle
TSIKLON-3
Launch site
Plesetsk Missile And Space Complex (PKMTR)
Object type
Payload
Rocket body
Debris
Shape & HBRCyl + 1 Arm, 7 m
Radar Cross Section1.257 m², Medium (>0.1 m² and < 1m²)

Expand to show TLE details & history

TLE from 13 hours ago
0 COSMOS 2385
1 27056U 01058B   25046.92795663  .00000034  00000-0  13483-3 0  9997
2 27056  82.5407 170.8359 0005437 244.6423 223.8563 12.60551881 64517
Epoch: 2025-02-15T22:16Z
Definitive object data (Epoch: 2025-02-15T22:16:15.452Z)
Latitude70.21266°
Longitude-150.62796°
Altitude1,435.844 km
Speed7.148 km/s
True Right ascension21h 58m 25s
True Declination70° 06' 45"
Sunlit
Object was in daylight at TLE epoch
Visualization TLE readout
Latitude57.94585°
Longitude62.26392°
Altitude1,434.601 km
Speed7.147 km/s
Apparent Right ascension05h 58m 22s
Apparent Declination46° 33' 33"
Sunlit
Object is in full shadow
Visualization observer readout
Local Sidereal Time14:06:49
Azimuth323.651° NNW
Elevation10.694°
Doppler factor1
Orbital elements
Apogee altitude1,422.231 km
Perigee altitude1,413.753 km
Semi-major axis7,796.129 km
Eccentricity0.0005437
Inclination82.5407°
RAAN170.8359°
Arg. of periapsis244.6423°
True anomaly223.81315°
Mean anomaly223.8563°
Eccentric anomaly223.83472°
Mean motion3.153 °/min
BSTAR0.00013483
Orbital period114.18 mins
Loading maneuver chart data...
Loading historical data...
Loading historical data...
Loading historical data...
Loading historical data...
Loading historical data...
Loading historical data...
Loading historical data...

COSMOS 2385 Visibility forecast

Observer location: undefined°, undefined

Span
Click to sort rows by Start time (UTC) header in descending order
Start Az.
Max El. time (UTC)
Max El. Az.
Max El.
End time (UTC)
End Az.
14 mins2025-02-16 19:16:28.513Z7.202° NNE2025-02-16 19:22:28.513Z67.159° ENE37.001°2025-02-16 19:30:28.513Z148.584° SSE
12 mins2025-02-16 21:12:28.513Z326.27° NNW2025-02-16 21:17:28.513Z278.448° WNW29.079°2025-02-16 21:24:28.513Z216.638° SW
14 mins2025-02-17 08:05:28.513Z156.553° SSE2025-02-17 08:11:28.513Z95.125° ESE37.446°2025-02-17 08:19:28.513Z18.41° NNE
13 mins2025-02-17 10:01:28.513Z234.022° WSW2025-02-17 10:07:28.513Z293.216° NW29.049°2025-02-17 10:14:28.513Z350.827° N
|